Location: *
(50.5492°N, 7.7469°E)
Time: 16:24:56
(UTC+00:00)

Cosmos 2297 - Pass Details

Date: 21 October 2019
Orbit: 834 x 860 km, 71.0° (Epoch: 13 November)

Event Time Altitude Azimuth Distance (km) Brightness Sun altitude
Rises 18:42:38 0° 200° (SSW) 3,399 7.0 -22.4°
Reaches altitude 10° 18:45:04 10° 198° (SSW) 2,471 6.2 -22.8°
Maximum altitude 18:50:43 72° 115° (ESE) 901 3.6 -23.6°
Enters shadow 18:53:24 32° 39° (NE) 1,424 4.6 -24.1°
